Weather History for KBWP - February, 2014

Change the Weather History Date:

Tuesday, February 4, 2014

  Actual Average (KFFM) Record (KFFM)
Temperature  
Mean Temperature -3 °F -  
Max Temperature 3 °F 18 °F 46 °F (1991)
Min Temperature -9 °F 0 °F -35 °F (1989)
Degree Days  
Heating Degree Days 68    
Moisture  
Dew Point -12 °F    
Average Humidity 68    
Maximum Humidity 78    
Minimum Humidity 56    
Precipitation  
Precipitation 0.00 in - - ()
Sea Level Pressure  
Sea Level Pressure 30.54 in    
Wind  
Wind Speed 9 mph (NNW)    
Max Wind Speed 17 mph    
Max Gust Speed -    
Visibility 10 miles    
Events      
Averages and records for this station are not official NWS values.
T = Trace of Precipitation, MM = Missing Value Source: NWS Daily Summary

Daily Weather History Graph

Daily Weather History Graph

Search for Another Location

Airport or City:

Trip Planner

Search our weather history database for the weather conditions in past years. The results will help you decide how hot, cold, wet, or windy it might be!

Date:

Astronomy

Feb. 04, 2014 Rise Set
Actual Time 7:45 AM CST 5:35 PM CST
Civil Twilight 7:13 AM CST 6:07 PM CST
Nautical Twilight 6:37 AM CST 6:43 PM CST
Astronomical Twilight 6:02 AM CST 7:18 PM CST
Moon 10:03 AM CST (2/4) 11:54 PM CST (2/4)
Length of Visible Light 10h 53m
Length of Day
9h 50m
Waxing Crescent, 29% of the Moon is Illuminated
Feb 4
Waxing Crescent
Feb 6
First Quarter
Feb 14
Full
Feb 22
Last Quarter
Mar 1
New

Hourly Weather History & Observations

Time (CST) Temp. Windchill Dew Point Humidity Pressure Visibility Wind Dir Wind Speed Gust Speed Precip Events Conditions
12:15 AM 1.4 °F -18.8 °F -7.6 °F 66% 30.43 in 10.0 mi North 17.3 mph - N/A   Mostly Cloudy
12:35 AM 1.4 °F -18.2 °F -7.6 °F 66% 30.43 in 10.0 mi North 16.1 mph - N/A   Mostly Cloudy
12:55 AM -0.4 °F -17.6 °F -7.6 °F 72% 30.44 in 10.0 mi North 11.5 mph - N/A   Scattered Clouds
1:15 AM -0.4 °F -15.7 °F -7.6 °F 72% 30.45 in 10.0 mi North 9.2 mph - N/A   Clear
1:35 AM -2.2 °F -15.6 °F -9.4 °F 71% 30.46 in 10.0 mi NNW 6.9 mph - N/A   Clear
1:55 AM -4.0 °F -17.8 °F -9.4 °F 78% 30.46 in 10.0 mi NNW 6.9 mph - N/A   Clear
2:15 AM -4.0 °F -17.8 °F -11.2 °F 71% 30.47 in 10.0 mi NNW 6.9 mph - N/A   Clear
2:35 AM -4.0 °F -17.8 °F -13.0 °F 65% 30.48 in 10.0 mi NNW 6.9 mph - N/A   Clear
2:55 AM -5.8 °F -16.7 °F -13.0 °F 71% 30.48 in 10.0 mi NW 4.6 mph - N/A   Clear
3:15 AM -7.6 °F -20.6 °F -14.8 °F 71% 30.49 in 10.0 mi NW 5.8 mph - N/A   Clear
3:35 AM -7.6 °F -22.1 °F -14.8 °F 71% 30.49 in 10.0 mi NW 6.9 mph - N/A   Clear
3:55 AM -7.6 °F -20.6 °F -14.8 °F 71% 30.49 in 10.0 mi NW 5.8 mph - N/A   Clear
4:15 AM -7.6 °F -20.6 °F -14.8 °F 71% 30.49 in 10.0 mi NW 5.8 mph - N/A   Clear
4:35 AM -7.6 °F -20.6 °F -14.8 °F 71% 30.49 in 10.0 mi NNW 5.8 mph - N/A   Clear
4:55 AM -5.8 °F -18.4 °F -13.0 °F 71% 30.50 in 10.0 mi NNW 5.8 mph - N/A   Clear
5:15 AM -5.8 °F -19.9 °F -13.0 °F 71% 30.50 in 10.0 mi NNW 6.9 mph - N/A   Clear
5:35 AM -5.8 °F -19.9 °F -13.0 °F 71% 30.51 in 10.0 mi NNW 6.9 mph - N/A   Clear
5:55 AM -7.6 °F -20.6 °F -14.8 °F 71% 30.51 in 10.0 mi NNW 5.8 mph - N/A   Clear
6:15 AM -7.6 °F -20.6 °F -14.8 °F 71% 30.51 in 10.0 mi NNW 5.8 mph - N/A   Clear
6:35 AM -7.6 °F -20.6 °F -14.8 °F 71% 30.51 in 10.0 mi NNW 5.8 mph - N/A   Clear
6:55 AM -7.6 °F -22.1 °F -14.8 °F 71% 30.52 in 10.0 mi NNW 6.9 mph - N/A   Clear
7:15 AM -9.4 °F -18.6 °F -16.6 °F 71% 30.53 in 10.0 mi North 3.5 mph - N/A   Clear
7:35 AM -9.4 °F -18.6 °F -16.6 °F 71% 30.53 in 10.0 mi NNW 3.5 mph - N/A   Clear
7:55 AM -9.4 °F -20.9 °F -16.6 °F 71% 30.54 in 10.0 mi NNW 4.6 mph - N/A   Clear
8:15 AM -9.4 °F -20.9 °F -16.6 °F 71% 30.55 in 10.0 mi NNW 4.6 mph - N/A   Clear
8:35 AM -9.4 °F -20.9 °F -16.6 °F 71% 30.55 in 10.0 mi NNW 4.6 mph - N/A   Clear
8:55 AM -9.4 °F -22.7 °F -16.6 °F 71% 30.55 in 10.0 mi NW 5.8 mph - N/A   Clear
9:15 AM -9.4 °F -20.9 °F -16.6 °F 71% 30.55 in 10.0 mi NW 4.6 mph - N/A   Clear
9:35 AM -7.6 °F -20.6 °F -16.6 °F 65% 30.56 in 10.0 mi NW 5.8 mph - N/A   Clear
9:55 AM -7.6 °F -23.4 °F -14.8 °F 71% 30.56 in 10.0 mi NW 8.1 mph - N/A   Clear
10:15 AM -5.8 °F -19.9 °F -14.8 °F 65% 30.58 in 10.0 mi NW 6.9 mph - N/A   Clear
10:35 AM -5.8 °F -19.9 °F -14.8 °F 65% 30.58 in 10.0 mi NW 6.9 mph - N/A   Clear
10:55 AM -5.8 °F -19.9 °F -13.0 °F 71% 30.58 in 10.0 mi NW 6.9 mph - N/A   Clear
11:15 AM -4.0 °F -19.0 °F -13.0 °F 65% 30.58 in 10.0 mi NW 8.1 mph - N/A   Clear
11:35 AM -4.0 °F -16.3 °F -11.2 °F 71% 30.59 in 10.0 mi NW 5.8 mph - N/A   Clear
11:55 AM -0.4 °F -14.7 °F -11.2 °F 60% 30.58 in 10.0 mi NNW 8.1 mph - N/A   Clear
12:15 PM -0.4 °F -14.7 °F -9.4 °F 66% 30.56 in 10.0 mi NNW 8.1 mph - N/A   Clear
12:35 PM -0.4 °F -15.7 °F -9.4 °F 66% 30.57 in 10.0 mi NW 9.2 mph - N/A   Clear
12:55 PM -0.4 °F -16.7 °F -9.4 °F 66% 30.56 in 10.0 mi NW 10.4 mph - N/A   Clear
1:15 PM 1.4 °F -12.5 °F -7.6 °F 66% 30.56 in 10.0 mi NNW 8.1 mph - N/A   Clear
1:35 PM 1.4 °F -15.3 °F -9.4 °F 61% 30.54 in 10.0 mi NNW 11.5 mph - N/A   Clear
1:55 PM 1.4 °F -14.5 °F -9.4 °F 61% 30.53 in 10.0 mi NNW 10.4 mph - N/A   Clear
2:15 PM 1.4 °F -15.3 °F -9.4 °F 61% 30.52 in 10.0 mi NNW 11.5 mph - N/A   Clear
2:35 PM 1.4 °F -14.5 °F -9.4 °F 61% 30.53 in 10.0 mi North 10.4 mph - N/A   Clear
2:55 PM 1.4 °F -14.5 °F -9.4 °F 61% 30.53 in 10.0 mi North 10.4 mph - N/A   Clear
3:15 PM 3.2 °F -12.2 °F -9.4 °F 56% 30.54 in 10.0 mi NNW 10.4 mph - N/A   Clear
3:35 PM 3.2 °F -10.3 °F -7.6 °F 61% 30.56 in 10.0 mi NNW 8.1 mph - N/A   Clear
3:55 PM 3.2 °F -11.3 °F -9.4 °F 56% 30.56 in 10.0 mi North 9.2 mph - N/A   Clear
4:15 PM 3.2 °F -10.3 °F -7.6 °F 61% 30.56 in 10.0 mi North 8.1 mph - N/A   Clear
4:35 PM 1.4 °F -13.5 °F -9.4 °F 61% 30.56 in 10.0 mi North 9.2 mph - N/A   Mostly Cloudy
4:55 PM 1.4 °F -12.5 °F -7.6 °F 66% 30.56 in 10.0 mi NNW 8.1 mph - N/A   Overcast
5:15 PM 1.4 °F -13.5 °F -9.4 °F 61% 30.56 in 10.0 mi North 9.2 mph - N/A   Scattered Clouds
5:35 PM -0.4 °F -17.6 °F -9.4 °F 66% 30.56 in 10.0 mi North 11.5 mph - N/A   Clear
6:15 PM -0.4 °F -12.0 °F -9.4 °F 66% 30.58 in 10.0 mi North 5.8 mph - N/A   Clear
6:35 PM -0.4 °F -14.7 °F -9.4 °F 66% 30.58 in 10.0 mi North 8.1 mph - N/A   Clear
6:55 PM -0.4 °F -14.7 °F -9.4 °F 66% 30.58 in 10.0 mi North 8.1 mph - N/A   Clear
7:15 PM -2.2 °F -16.8 °F -9.4 °F 71% 30.58 in 10.0 mi North 8.1 mph - N/A   Clear
7:35 PM -2.2 °F -16.8 °F -9.4 °F 71% 30.58 in 10.0 mi North 8.1 mph - N/A   Clear
7:55 PM -2.2 °F -15.6 °F -9.4 °F 71% 30.58 in 10.0 mi North 6.9 mph - N/A   Clear
8:15 PM -4.0 °F -17.8 °F -11.2 °F 71% 30.58 in 10.0 mi NNW 6.9 mph - N/A   Clear
8:35 PM -4.0 °F -16.3 °F -11.2 °F 71% 30.58 in 10.0 mi NNW 5.8 mph - N/A   Clear
8:55 PM -4.0 °F -16.3 °F -13.0 °F 65% 30.58 in 10.0 mi NNW 5.8 mph - N/A   Clear
9:15 PM -4.0 °F -16.3 °F -13.0 °F 65% 30.56 in 10.0 mi NNW 5.8 mph - N/A   Clear
9:35 PM -4.0 °F -17.8 °F -13.0 °F 65% 30.56 in 10.0 mi NNW 6.9 mph - N/A   Clear
9:55 PM -4.0 °F -17.8 °F -11.2 °F 71% 30.56 in 10.0 mi NNW 6.9 mph - N/A   Clear
10:15 PM -5.8 °F -16.7 °F -13.0 °F 71% 30.57 in 10.0 mi NW 4.6 mph - N/A   Clear
10:35 PM -7.6 °F -20.6 °F -14.8 °F 71% 30.57 in 10.0 mi NW 5.8 mph - N/A   Clear
10:55 PM -7.6 °F -22.1 °F -13.0 °F 77% 30.58 in 10.0 mi WNW 6.9 mph - N/A   Clear
11:15 PM -7.6 °F -16.5 °F -14.8 °F 71% 30.58 in 10.0 mi WNW 3.5 mph - N/A   Clear
11:35 PM -7.6 °F -18.8 °F -14.8 °F 71% 30.59 in 10.0 mi NW 4.6 mph - N/A   Clear
11:55 PM -7.6 °F -18.8 °F -14.8 °F 71% 30.60 in 10.0 mi West 4.6 mph - N/A   Clear